Home > Time Zones > World Clock > Weather > Spain > Palma > Past weeks

Flag for Spain Weather past 2 weeks in Palma, Majorca, Spain

Now
70 °F

Passing clouds.


Feels Like: 70 °F
Forecast: 74 / 87 °F
Wind: No wind

Location: Palma De Mallorca / Son San Juan

Current Time: Aug 1, 2014 at 4:51:12 AM

Latest Report: Aug 1, 2014 at 4:00 AM


Visibility: N/A

Pressure: 29.89 "Hg

Humidity: 83%

Dew point: 64 °F

Location of PalmaLocation

Historic Weather in Palma — Graph

°F

Palma temperature yesterday

Maximum temperature yesterday: 84 °F (at 1:30 PM)
Minimum temperature yesterday: 61 °F (at 7:00 AM)
Average temperature yesterday: 76 °F

Past Weeks' High & Low Weather Summary

 TemperatureHumidityPressure
High97 °F (Jul 18, 1:30 PM)89% (Jul 19, 11:30 PM)30.12 "Hg (Jul 19, 11:30 PM)
Low61 °F (Jul 31, 7:00 AM)20% (Jul 18, 1:30 PM)29.80 "Hg (Jul 20, 4:00 AM)
Average79 °F62%29.94 "Hg
* Reported Jul 17 3:00 AM — Aug 1 3:30 AM, Palma, Weather by CustomWeather, © 2014

Note: Actual official high and low records may vary slightly from our data, if they occured in-between our weather recording intervals... More about our weather records

Advertising

Palma weather history for previous 24 hours

 ConditionsComfort  
Time TempWeatherWind HumidityBarometerVisibility
3:30 AM
Aug 1
72 °FPassing clouds.1 mph78%29.92 "HgN/A
3:00 AM72 °FPassing clouds.2 mph83%29.92 "HgN/A
2:30 AM73 °FPassing clouds.1 mph78%29.92 "HgN/A
2:00 AM77 °FPassing clouds.1 mph74%29.92 "HgN/A
1:30 AM79 °FPassing clouds.1 mph70%29.92 "HgN/A
1:00 AM79 °FClear.2 mph70%29.92 "Hg10 mi
12:30 AM77 °FClear.2 mph74%29.95 "Hg10 mi
12:00 AM79 °FClear.2 mph65%29.95 "Hg10 mi
11:30 PM
Jul 31
79 °FClear.2 mph70%29.95 "Hg10 mi
11:00 PM79 °FClear.2 mph70%29.92 "Hg10 mi
10:30 PM79 °FClear.2 mph70%29.92 "Hg10 mi
10:00 PM79 °FSunny.6 mph70%29.92 "Hg10 mi
9:30 PM79 °FSunny.7 mph70%29.92 "Hg10 mi
9:00 PM79 °FSunny.8 mph70%29.92 "Hg10 mi
8:30 PM81 °FPassing clouds.7 mph62%29.92 "HgN/A
8:00 PM81 °FPassing clouds.10 mph66%29.89 "HgN/A
7:30 PM81 °FSunny.13 mph66%29.92 "Hg10 mi
7:00 PM81 °FPassing clouds.14 mph66%29.92 "HgN/A
6:30 PM82 °FPassing clouds.14 mph58%29.92 "HgN/A
6:00 PM82 °FPassing clouds.15 mph62%29.92 "HgN/A
5:30 PM82 °FPassing clouds.14 mph62%29.92 "HgN/A
5:00 PM84 °FPassing clouds.15 mph55%29.92 "HgN/A
4:30 PM84 °FPassing clouds.14 mph58%29.95 "HgN/A
4:00 PM82 °FPassing clouds.18 mph62%29.95 "HgN/A
3:30 PM82 °FPassing clouds.17 mph62%29.95 "HgN/A
3:00 PM82 °FPassing clouds.16 mph62%29.95 "HgN/A
2:30 PM84 °FPassing clouds.17 mph55%29.95 "HgN/A
2:00 PM84 °FPassing clouds.18 mph58%29.95 "HgN/A
1:30 PM84 °FPassing clouds.15 mph58%29.95 "HgN/A
1:00 PM82 °FPassing clouds.13 mph58%29.98 "HgN/A
12:30 PM82 °FPassing clouds.12 mph58%29.98 "HgN/A
12:00 PM81 °FPassing clouds.12 mph62%29.98 "HgN/A
11:30 AM82 °FPassing clouds.9 mph58%29.98 "HgN/A
11:00 AM81 °FPassing clouds.9 mph62%29.98 "HgN/A
10:30 AM81 °FPassing clouds.9 mph66%29.98 "HgN/A
10:00 AM79 °FPassing clouds.2 mph70%29.98 "HgN/A
9:30 AM79 °FPassing clouds.No wind61%29.98 "HgN/A
9:00 AM75 °FSunny.No wind65%29.98 "Hg10 mi
8:30 AM70 °FSunny.No wind78%29.98 "Hg10 mi
8:00 AM68 °FSunny.No wind83%29.95 "Hg10 mi
7:30 AM63 °FClear.No wind88%29.95 "Hg10 mi
7:00 AM61 °FClear.No wind88%29.95 "Hg10 mi
6:30 AM63 °FClear.No wind83%29.95 "Hg10 mi
6:00 AM64 °FClear.1 mph73%29.95 "Hg10 mi
5:30 AM63 °FClear.No wind77%29.95 "Hg10 mi
4:30 AM64 °FClear.1 mph78%29.95 "Hg10 mi
4:00 AM63 °FClear.No wind88%29.95 "Hg10 mi
Weather by CustomWeather, © 2014

See weather overviewHow to use our weather pages